Total_Precipitation_Accumulation
0.00 0.00 0.00 0.00 0.00 0.00 0.00 0.01 0.03 0.07 0.09 0.10 0.13 0.13 0.15 0.25 0.54 1.10 0.61 0.32 0.17 0.07 0.05 0.05 0.04 0.04 0.06 0.09 0.13 0.14 0.12 0.13 0.15 0.15 0.15 0.12 0.09 0.07 0.07 0.08 0.12 0.18 0.19 0.18 0.14 0.12 0.12 0.12 0.10
0.00 0.00 0.00 0.00 0.00 0.00 0.01 0.02 0.04 0.07 0.10 0.12 0.19 0.17 0.15 0.20 0.25 0.21 0.25 0.24 0.16 0.08 0.05 0.04 0.05 0.05 0.06 0.07 0.11 0.15 0.14 0.13 0.13 0.14 0.12 0.10 0.09 0.09 0.09 0.09 0.12 0.15 0.15 0.12 0.09 0.08 0.08 0.09 0.08
0.00 0.00 0.00 0.00 0.00 0.01 0.03 0.05 0.08 0.09 0.09 0.13 0.27 0.41 0.38 0.35 0.38 0.26 0.21 0.16 0.13 0.07 0.05 0.06 0.06 0.07 0.09 0.08 0.08 0.14 0.16 0.16 0.16 0.16 0.14 0.13 0.13 0.12 0.11 0.12 0.13 0.14 0.13 0.15 0.14 0.11 0.08 0.08 0.08
0.00 0.00 0.00 0.00 0.00 0.01 0.03 0.08 0.13 0.11 0.12 0.13 0.22 0.47 0.41 0.35 0.38 0.37 0.23 0.18 0.17 0.11 0.07 0.07 0.07 0.10 0.13 0.13 0.13 0.14 0.16 0.18 0.20 0.19 0.18 0.17 0.16 0.14 0.12 0.13 0.13 0.14 0.15 0.17 0.19 0.15 0.09 0.08 0.09
0.00 0.00 0.00 0.00 0.00 0.01 0.05 0.09 0.12 0.12 0.14 0.18 0.21 0.45 0.53 0.43 0.46 0.58 0.47 0.33 0.27 0.20 0.16 0.11 0.11 0.11 0.13 0.16 0.20 0.23 0.19 0.19 0.22 0.22 0.20 0.19 0.19 0.16 0.15 0.15 0.14 0.16 0.19 0.20 0.17 0.12 0.07 0.07 0.08
0.00 0.00 0.00 0.00 0.00 0.01 0.05 0.08 0.09 0.13 0.17 0.28 0.30 0.60 0.93 0.83 0.78 0.84 0.81 0.51 0.38 0.30 0.23 0.19 0.17 0.14 0.15 0.19 0.21 0.28 0.30 0.29 0.28 0.26 0.24 0.22 0.19 0.17 0.19 0.18 0.18 0.20 0.24 0.23 0.14 0.08 0.06 0.06 0.07
0.00 0.00 0.00 0.00 0.01 0.04 0.06 0.09 0.12 0.16 0.26 0.40 0.49 0.85 1.09 1.13 1.14 0.92 0.87 0.69 0.40 0.37 0.38 0.36 0.26 0.23 0.24 0.26 0.24 0.27 0.34 0.35 0.35 0.35 0.35 0.31 0.28 0.26 0.24 0.23 0.22 0.24 0.25 0.20 0.12 0.08 0.06 0.06 0.07
0.00 0.00 0.00 0.00 0.01 0.04 0.06 0.09 0.14 0.22 0.35 0.48 0.64 1.01 1.27 1.25 1.13 1.00 0.84 0.85 0.61 0.55 0.56 0.58 0.58 0.49 0.36 0.32 0.33 0.33 0.40 0.43 0.37 0.36 0.37 0.35 0.30 0.26 0.25 0.21 0.23 0.23 0.21 0.18 0.14 0.13 0.09 0.07 0.06
0.00 0.00 0.00 0.00 0.01 0.04 0.08 0.09 0.15 0.24 0.39 0.56 0.56 0.71 1.11 0.98 1.09 1.32 1.15 1.07 0.91 0.76 0.74 0.68 0.74 0.72 0.53 0.44 0.38 0.39 0.45 0.51 0.48 0.41 0.39 0.36 0.43 0.46 0.39 0.30 0.31 0.26 0.24 0.21 0.19 0.14 0.11 0.09 0.06
0.00 0.00 0.00 0.00 0.01 0.05 0.10 0.15 0.21 0.26 0.30 0.44 0.54 0.57 0.80 0.97 1.05 1.24 1.47 1.31 1.13 0.98 0.95 0.90 0.77 0.70 0.65 0.53 0.50 0.55 0.52 0.55 0.53 0.58 0.54 0.57 0.83 0.93 0.72 0.72 0.57 0.46 0.38 0.31 0.26 0.20 0.15 0.10 0.09
0.00 0.00 0.00 0.00 0.02 0.09 0.14 0.18 0.20 0.29 0.41 0.56 0.74 0.78 0.84 1.02 1.26 1.35 1.64 1.56 1.43 1.35 1.14 1.20 1.07 0.89 1.01 1.03 0.85 0.81 0.80 0.81 0.76 0.92 0.94 0.99 1.10 1.05 1.00 1.09 0.87 0.71 0.61 0.59 0.57 0.36 0.28 0.25 0.26
0.00 0.00 0.00 0.00 0.02 0.08 0.12 0.10 0.21 0.35 0.70 0.84 1.11 1.33 1.32 1.22 1.49 1.58 1.89 1.82 1.81 1.77 1.54 1.43 1.43 1.32 1.38 1.61 1.46 1.20 1.10 1.11 1.11 1.18 1.08 1.23 1.37 1.35 1.30 1.37 1.20 1.13 1.10 1.13 1.03 0.85 0.68 0.59 0.49
0.00 0.00 0.00 0.01 0.02 0.06 0.13 0.16 0.23 0.37 0.59 0.74 1.11 1.50 1.51 1.35 1.32 1.47 2.08 1.92 1.88 1.92 1.83 1.59 1.65 1.66 1.74 1.92 1.80 1.64 1.69 1.50 1.39 1.51 1.37 1.40 1.49 1.54 1.63 1.52 1.47 1.39 1.38 1.35 1.21 1.14 1.09 0.96 0.85
0.01 0.01 0.01 0.02 0.02 0.07 0.13 0.17 0.22 0.29 0.30 0.42 0.72 0.95 1.01 1.10 1.17 1.31 1.70 1.79 1.72 1.77 1.85 1.91 1.89 1.90 1.77 1.87 1.90 1.77 1.69 1.71 1.56 1.53 1.49 1.44 1.53 1.73 1.80 1.79 1.77 1.72 1.73 1.80 1.61 1.41 1.45 1.31 1.26
0.00 0.01 0.02 0.03 0.06 0.12 0.14 0.20 0.30 0.38 0.31 0.38 0.52 0.53 0.71 0.89 1.14 1.39 1.58 1.66 1.71 1.74 1.80 1.94 1.97 2.01 1.94 1.90 1.94 1.90 1.80 1.71 1.72 1.80 1.84 1.69 1.63 1.86 1.94 2.11 2.08 2.01 1.98 2.03 2.01 1.85 1.85 1.69 1.59
0.01 0.02 0.05 0.07 0.07 0.08 0.12 0.28 0.43 0.46 0.44 0.37 0.34 0.36 0.49 0.72 0.95 1.12 1.20 1.37 1.41 1.41 1.56 1.66 1.79 1.88 2.12 2.22 2.28 2.13 2.20 2.11 2.08 1.97 1.98 1.88 1.84 1.98 2.17 2.28 2.30 2.28 2.20 2.30 2.43 2.38 2.19 2.07 1.91
0.01 0.04 0.05 0.09 0.06 0.06 0.13 0.34 0.48 0.43 0.48 0.44 0.34 0.30 0.37 0.54 0.71 0.81 0.89 1.03 1.16 1.24 1.53 1.67 1.80 1.97 2.13 2.31 2.48 2.45 2.54 2.47 2.43 2.40 2.31 2.37 2.44 2.36 2.44 2.58 2.67 2.68 2.71 2.72 2.62 2.74 2.53 2.47 2.32
0.04 0.04 0.07 0.07 0.05 0.06 0.13 0.29 0.42 0.45 0.51 0.51 0.49 0.45 0.44 0.51 0.70 0.77 0.79 0.96 1.09 1.29 1.59 1.81 1.98 2.21 2.49 2.57 2.74 2.67 2.84 2.98 3.08 3.22 3.12 2.98 3.04 3.03 3.11 3.10 3.15 3.14 3.19 3.06 3.01 2.99 2.80 2.64 2.61
0.04 0.04 0.08 0.08 0.07 0.07 0.13 0.29 0.47 0.54 0.66 0.67 0.60 0.56 0.58 0.61 0.70 0.85 1.01 1.23 1.50 1.70 1.78 1.91 2.06 2.27 2.48 2.78 3.10 3.26 3.34 3.55 3.70 3.83 3.98 3.95 3.91 4.01 4.06 3.96 3.86 3.71 3.58 3.39 3.28 3.11 2.93 2.71 2.63
0.01 0.04 0.07 0.07 0.09 0.11 0.20 0.34 0.48 0.55 0.62 0.71 0.73 0.73 0.70 0.73 0.82 1.11 1.38 1.72 1.85 1.92 1.96 2.07 2.19 2.46 2.74 3.12 3.57 3.99 4.16 4.29 4.31 4.36 4.58 4.69 4.71 4.87 4.98 4.90 4.71 4.49 4.15 3.72 3.39 3.20 3.04 2.79 2.74
0.01 0.03 0.06 0.09 0.08 0.13 0.28 0.51 0.66 0.65 0.72 0.79 0.85 0.99 0.94 0.96 1.11 1.35 1.60 1.74 1.89 1.96 2.06 2.18 2.50 2.91 3.35 3.83 4.35 4.77 5.04 5.09 5.02 4.73 4.84 4.98 4.94 5.01 5.18 5.16 4.91 4.54 4.01 3.53 3.36 3.28 3.15 2.97 2.87
0.02 0.02 0.04 0.06 0.08 0.15 0.24 0.58 0.88 0.89 0.93 0.87 0.92 1.04 1.00 1.03 1.16 1.33 1.55 1.77 1.85 1.98 2.16 2.29 2.63 3.18 3.65 4.12 4.78 5.29 5.57 5.74 5.84 5.60 5.30 5.15 4.97 4.83 4.73 4.60 4.20 3.75 3.42 3.17 3.09 3.08 2.91 2.89 2.81
0.02 0.01 0.02 0.03 0.05 0.13 0.17 0.44 0.98 1.10 1.18 1.09 1.05 1.12 0.99 0.92 1.02 1.17 1.30 1.59 1.85 1.94 1.98 2.07 2.49 3.09 3.81 4.52 5.07 5.54 5.91 6.04 5.98 5.63 5.26 4.84 4.48 4.06 3.71 3.37 3.09 2.95 2.75 2.55 2.47 2.47 2.44 2.33 2.28
0.01 0.01 0.02 0.03 0.07 0.18 0.19 0.39 1.00 1.33 1.54 1.59 1.28 1.11 0.99 0.91 0.92 0.95 1.05 1.29 1.60 1.66 1.79 2.01 2.35 3.02 3.76 4.37 4.91 5.29 5.62 5.65 5.37 4.94 4.48 4.19 3.81 3.33 2.88 2.65 2.43 2.29 2.11 1.90 1.78 1.77 1.83 1.91 1.98
0.02 0.04 0.17 0.29 0.35 0.33 0.28 0.50 1.09 1.31 1.29 1.25 1.20 1.21 1.11 0.91 0.86 0.91 0.96 1.08 1.30 1.45 1.71 2.08 2.46 2.94 3.38 3.87 4.34 4.59 4.78 4.82 4.74 4.50 4.15 3.87 3.46 3.02 2.57 2.18 1.98 1.75 1.58 1.49 1.43 1.40 1.40 1.48 1.59
0.02 0.06 0.29 0.45 0.48 0.50 0.55 0.89 1.39 1.23 1.02 1.00 1.07 1.09 1.03 0.97 0.95 1.09 1.18 1.23 1.33 1.44 1.59 1.91 2.25 2.63 2.84 3.07 3.41 3.63 3.76 3.82 3.74 3.56 3.30 3.01 2.72 2.45 2.12 1.70 1.39 1.20 1.08 1.02 1.04 1.09 1.14 1.17 1.22
0.04 0.07 0.14 0.18 0.25 0.49 0.84 1.26 1.70 1.65 1.22 1.03 1.06 1.02 0.96 0.95 0.95 1.10 1.24 1.28 1.31 1.36 1.50 1.61 1.75 1.98 2.22 2.43 2.56 2.66 2.71 2.65 2.59 2.45 2.24 2.04 1.86 1.66 1.43 1.19 1.03 0.93 0.89 0.84 0.81 0.82 0.85 0.89 0.95
0.07 0.09 0.12 0.20 0.41 0.71 0.93 1.45 2.08 2.11 1.66 1.32 1.22 1.15 1.02 0.95 0.99 1.09 1.14 1.19 1.19 1.16 1.22 1.31 1.42 1.52 1.66 1.77 1.80 1.74 1.75 1.76 1.64 1.52 1.44 1.29 1.13 1.01 0.93 0.84 0.79 0.75 0.70 0.69 0.70 0.68 0.67 0.76 0.79
0.10 0.11 0.17 0.26 0.32 0.69 1.13 1.75 2.06 2.27 2.13 1.78 1.36 1.11 1.02 1.00 0.98 0.99 0.99 0.99 0.98 0.91 0.94 1.00 1.07 1.19 1.27 1.30 1.31 1.22 1.16 1.09 1.01 0.93 0.92 0.85 0.77 0.74 0.70 0.65 0.62 0.61 0.61 0.60 0.59 0.60 0.58 0.63 0.74
0.11 0.13 0.19 0.36 0.40 0.49 0.93 1.90 2.13 2.41 2.36 2.01 1.55 1.20 1.10 1.06 0.99 0.90 0.85 0.81 0.78 0.75 0.75 0.78 0.85 0.90 0.91 0.91 0.88 0.85 0.79 0.75 0.73 0.70 0.68 0.71 0.68 0.62 0.60 0.57 0.55 0.55 0.56 0.58 0.57 0.56 0.56 0.58 0.64